| time (UTC) | temp F | wind direction | speed knots | gust knots | rain 1hr in | rain 24hr in | rain mn in | humidity % | barometer mb |
| 20260505191925 | 84 | 267 | 8.7 | 7.0 | 0.00 | 0.00 | 0.00 | ||
| 20260505190921 | 84 | 250 | 7.0 | 9.6 | 0.00 | 0.00 | 0.00 | ||
| 20260505185918 | 83 | 262 | 16.5 | 10.4 | 0.00 | 0.00 | 0.00 | ||
| 20260505184913 | 84 | 264 | 11.3 | 7.8 | 0.00 | 0.00 | 0.00 | ||
| 20260505183909 | 84 | 239 | 2.6 | 7.0 | 0.00 | 0.00 | 0.00 | ||
| 20260505182912 | 84 | 226 | 5.2 | 3.5 | 0.00 | 0.00 | 0.00 | ||
| 20260505181859 | 84 | 266 | 3.5 | 1.7 | 0.00 | 0.00 | 0.00 | ||
| 20260505180855 | 84 | 224 | 2.6 | 2.6 | 0.00 | 0.00 | 0.00 | ||
| 20260505174842 | 84 | 191 | 2.6 | 1.7 | 0.00 | 0.00 | 0.00 | ||
| 20260505173844 | 83 | 263 | 3.5 | 0.9 | 0.00 | 0.00 | 0.00 | ||
| 20260505172835 | 83 | 228 | 12.2 | 7.8 | 0.00 | 0.00 | 0.00 | ||
| 20260505171831 | 81 | 229 | 9.6 | 9.6 | 0.00 | 0.00 | 0.00 | ||
| 20260505170826 | 82 | 259 | 7.0 | 10.4 | 0.00 | 0.00 | 0.00 | ||
| 20260505165823 | 81 | 239 | 5.2 | 7.0 | 0.00 | 0.00 | 0.00 | ||
| 20260505164819 | 81 | 233 | 6.1 | 9.6 | 0.00 | 0.00 | 0.00 | ||
| 20260505163815 | 80 | 248 | 6.1 | 9.6 | 0.00 | 0.00 | 0.00 | ||
| 20260505162811 | 79 | 231 | 7.0 | 10.4 | 0.00 | 0.00 | 0.00 | ||
| 20260505161808 | 79 | 263 | 9.6 | 8.7 | 0.00 | 0.00 | 0.00 | ||
| 20260505160803 | 79 | 246 | 7.0 | 7.8 | 0.00 | 0.00 | 0.00 | ||
| 20260505151742 | 77 | 260 | 7.8 | 11.3 | 0.00 | 0.00 | 0.00 | ||
| 20260505150738 | 78 | 255 | 7.0 | 5.2 | 0.00 | 0.00 | 0.00 | ||
| 20260505124635 | 68 | 259 | 10.4 | 10.4 | 0.00 | 0.00 | 0.00 | ||
| 20260505123631 | 69 | 249 | 10.4 | 13.9 | 0.00 | 0.00 | 0.00 | ||
| 20260505122628 | 68 | 225 | 10.4 | 8.7 | 0.00 | 0.00 | 0.00 | ||
| 20260505121620 | 68 | 242 | 9.6 | 9.6 | 0.00 | 0.00 | 0.00 | ||
| 20260505120622 | 68 | 253 | 9.6 | 7.8 | 0.00 | 0.00 | 0.00 | ||
| 20260505115610 | 68 | 269 | 5.2 | 7.8 | 0.00 | 0.00 | 0.00 | ||
| 20260505114600 | 68 | 252 | 8.7 | 12.2 | 0.00 | 0.00 | 0.00 | ||
| 20260505113554 | 66 | 256 | 11.3 | 17.4 | 0.00 | 0.00 | 0.00 | ||
| 20260505112548 | 67 | 260 | 10.4 | 6.1 | 0.00 | 0.00 | 0.00 | ||
| 20260505111552 | 70 | 217 | 9.6 | 8.7 | 0.00 | 0.00 | 0.00 | ||
| 20260505110538 | 64 | 257 | 10.4 | 7.8 | 0.00 | 0.00 | 0.00 | ||
| 20260505101516 | 61 | 232 | 8.7 | 7.0 | 0.00 | 0.00 | 0.00 | ||
| 20260505100508 | 61 | 253 | 7.8 | 10.4 | 0.00 | 0.00 | 0.00 | ||
| 20260505095458 | 60 | 256 | 7.0 | 9.6 | 0.00 | 0.00 | 0.00 | ||
| 20260505094452 | 60 | 210 | 8.7 | 4.3 | 0.00 | 0.00 | 0.00 | ||
| 20260505093444 | 61 | 229 | 7.8 | 5.2 | 0.00 | 0.00 | 0.00 | ||
| 20260505091430 | 61 | 248 | 6.1 | 9.6 | 0.00 | 0.00 | 0.00 | ||
| 20260505090421 | 61 | 252 | 7.0 | 6.1 | 0.00 | 0.00 | 0.00 | ||
| 20260505085416 | 61 | 250 | 9.6 | 7.0 | 0.00 | 0.00 | 0.00 | ||
| 20260505084405 | 62 | 245 | 9.6 | 10.4 | 0.00 | 0.00 | 0.00 | ||
| 20260505083400 | 61 | 250 | 8.7 | 10.4 | 0.00 | 0.00 | 0.00 | ||
| 20260505081342 | 62 | 246 | 11.3 | 10.4 | 0.00 | 0.00 | 0.00 | ||
| 20260505080337 | 62 | 248 | 8.7 | 3.5 | 0.00 | 0.00 | 0.00 | ||
| 20260505075335 | 62 | 225 | 7.8 | 7.0 | 0.00 | 0.00 | 0.00 | ||
| 20260505074330 | 62 | 257 | 8.7 | 9.6 | 0.00 | 0.00 | 0.00 | ||
| 20260505073322 | 62 | 257 | 11.3 | 7.0 | 0.00 | 0.00 | 0.00 | ||
| 20260505071310 | 62 | 238 | 12.2 | 6.1 | 0.00 | 0.00 | 0.00 | ||
| 20260505070257 | 62 | 226 | 6.1 | 6.1 | 0.00 | 0.00 | 0.00 | ||
| 20260505065251 | 61 | 252 | 7.0 | 11.3 | 0.00 | 0.00 | 0.00 | ||
| 20260505064242 | 61 | 245 | 5.2 | 0.9 | 0.00 | 0.00 | 0.00 | ||
| 20260505063235 | 61 | 158 | 3.5 | 3.5 | 0.00 | 0.00 | 0.00 | ||
| 20260505062222 | 61 | 273 | 4.3 | 3.5 | 0.00 | 0.00 | 0.00 | ||
| 20260505061217 | 61 | 243 | 3.5 | 3.5 | 0.00 | 0.00 | 0.00 | ||
| 20260505060200 | 61 | 248 | 0.0 | 2.6 | 0.00 | 0.00 | 0.00 | ||
| 20260505055149 | 61 | 120 | 2.6 | 0.9 | 0.00 | 0.00 | 0.00 | ||
| 20260505054143 | 61 | 240 | 1.7 | 6.1 | 0.00 | 0.00 | 0.00 | ||
| 20260505053136 | 60 | 198 | 1.7 | 0.9 | 0.00 | 0.00 | 0.00 | ||
| 20260505052124 | 60 | 266 | 1.7 | 6.1 | 0.00 | 0.00 | 0.00 | ||
| 20260505051156 | 60 | 107 | 0.9 | 0.0 | 0.00 | 0.00 | 0.00 | ||
| 20260505051114 | 60 | 107 | 0.9 | 0.0 | 0.00 | 0.00 | 0.00 | ||
| 20260505050109 | 60 | 124 | 0.0 | 0.0 | 0.00 | 0.00 | 0.00 | ||
| 20260505041031 | 61 | 219 | 3.5 | 1.7 | 0.00 | 0.00 | 0.00 | ||
| 20260505035016 | 61 | 264 | 1.7 | 0.9 | 0.00 | 0.00 | 0.00 | ||
| 20260505034005 | 61 | 267 | 0.0 | 2.6 | 0.00 | 0.00 | 0.00 | ||
| 20260505032956 | 61 | 145 | 0.9 | 0.0 | 0.00 | 0.00 | 0.00 | ||
| 20260505031951 | 61 | 256 | 0.9 | 3.5 | 0.00 | 0.00 | 0.00 | ||
| 20260505030938 | 61 | 183 | 0.9 | 0.9 | 0.00 | 0.00 | 0.00 | ||
| 20260505025933 | 62 | 145 | 1.7 | 0.0 | 0.00 | 0.00 | 0.00 | ||
| 20260505024926 | 62 | 194 | 3.5 | 4.3 | 0.00 | 0.00 | 0.00 | ||
| 20260505023918 | 62 | 204 | 2.6 | 2.6 | 0.00 | 0.00 | 0.00 | ||
| 20260505022911 | 62 | 211 | 1.7 | 0.9 | 0.00 | 0.00 | 0.00 | ||
| 20260505021902 | 63 | 165 | 2.6 | 0.9 | 0.00 | 0.00 | 0.00 | ||
| 20260505020854 | 63 | 181 | 3.5 | 5.2 | 0.00 | 0.00 | 0.00 | ||
| 20260505015847 | 63 | 194 | 2.6 | 6.1 | 0.00 | 0.00 | 0.00 | ||
| 20260505014841 | 63 | 174 | 3.5 | 1.7 | 0.00 | 0.00 | 0.00 | ||
| 20260505013834 | 63 | 183 | 1.7 | 3.5 | 0.00 | 0.00 | 0.00 | ||
| 20260505012829 | 64 | 170 | 2.6 | 0.0 | 0.00 | 0.00 | 0.00 | ||
| 20260505011823 | 64 | 101 | 0.0 | 0.0 | 0.00 | 0.00 | 0.00 | ||
| 20260505010815 | 64 | 166 | 0.9 | 0.0 | 0.00 | 0.00 | 0.00 | ||
| 20260505005808 | 64 | 180 | 0.0 | 0.9 | 0.00 | 0.00 | 0.00 | ||
| 20260505004801 | 65 | 217 | 0.0 | 0.0 | 0.00 | 0.00 | 0.00 | ||
| 20260505003755 | 65 | 150 | 0.0 | 0.0 | 0.00 | 0.00 | 0.00 | ||
| 20260505002749 | 65 | 148 | 0.9 | 0.0 | 0.00 | 0.00 | 0.00 | ||
| 20260505001744 | 65 | 226 | 0.0 | 0.0 | 0.00 | 0.00 | 0.00 | ||
| 20260505000734 | 66 | 156 | 0.0 | 0.0 | 0.00 | 0.00 | 0.00 | ||
| 20260504235722 | 66 | 162 | 1.7 | 0.0 | 0.00 | 0.00 | 0.00 | ||
| 20260504234716 | 67 | 153 | 0.0 | 0.0 | 0.00 | 0.00 | 0.00 | ||
| 20260504233709 | 68 | 142 | 0.0 | 0.0 | 0.00 | 0.00 | 0.00 | ||
| 20260504232702 | 68 | 263 | 0.0 | 0.0 | 0.00 | 0.00 | 0.00 | ||
| 20260504231658 | 69 | 214 | 0.0 | 0.0 | 0.00 | 0.00 | 0.00 | ||
| 20260504230650 | 70 | 219 | 0.9 | 3.5 | 0.00 | 0.00 | 0.00 | ||
| 20260504225649 | 72 | 260 | 2.6 | 6.1 | 0.00 | 0.00 | 0.00 | ||
| 20260504224639 | 73 | 266 | 0.9 | 8.7 | 0.00 | 0.00 | 0.00 | ||
| 20260504223633 | 74 | 240 | 4.3 | 1.7 | 0.00 | 0.00 | 0.00 | ||
| 20260504222620 | 76 | 158 | 3.5 | 1.7 | 0.00 | 0.00 | 0.00 | ||
| 20260504221615 | 77 | 48 | 0.9 | 0.0 | 0.00 | 0.00 | 0.00 | ||
| 20260504215606 | 77 | 257 | 9.6 | 3.5 | 0.00 | 0.00 | 0.00 | ||
| 20260504214601 | 77 | 277 | 7.8 | 6.1 | 0.00 | 0.00 | 0.00 | ||
| 20260504213554 | 78 | 269 | 9.6 | 10.4 | 0.00 | 0.00 | 0.00 | ||
| 20260504212550 | 77 | 240 | 4.3 | 2.6 | 0.00 | 0.00 | 0.00 | ||
| 20260504211545 | 78 | 198 | 4.3 | 1.7 | 0.00 | 0.00 | 0.00 | ||
| 20260504210540 | 78 | 257 | 9.6 | 12.2 | 0.00 | 0.00 | 0.00 | ||
| 20260504205538 | 78 | 222 | 5.2 | 6.1 | 0.00 | 0.00 | 0.00 | ||
| 20260504204533 | 78 | 248 | 5.2 | 9.6 | 0.00 | 0.00 | 0.00 | ||
| 20260504203527 | 79 | 238 | 7.0 | 4.3 | 0.00 | 0.00 | 0.00 | ||
| 20260504202522 | 78 | 253 | 8.7 | 9.6 | 0.00 | 0.00 | 0.00 | ||
| 20260504201517 | 78 | 229 | 7.8 | 6.1 | 0.00 | 0.00 | 0.00 | ||
| 20260504200521 | 78 | 250 | 7.0 | 3.5 | 0.00 | 0.00 | 0.00 | ||
| 20260504195522 | 78 | 264 | 8.7 | 11.3 | 0.00 | 0.00 | 0.00 | ||
| 20260504194505 | 78 | 211 | 8.7 | 7.0 | 0.00 | 0.00 | 0.00 | ||
| 20260504193501 | 78 | 242 | 11.3 | 6.1 | 0.00 | 0.00 | 0.00 | ||
| 20260504192455 | 78 | 221 | 7.8 | 2.6 | 0.00 | 0.00 | 0.00 |